Wind_Speed
35 35 38 41 44 47 47 44 44 44 42 42 46 46 46 47 46 43 43 43 39 36 33 31 31 31 31 30 29 27 26 25 25 26 26 25 24 24 24 24 25 26 27 27 26 26 24 22 22 23 22 22 22 20 16 12 12 14 14 11 8 8 12 17 21 22 21 21 22 22 21 22 23 24 24 24 24 22 21 19 18 18 17 16 15 16 17
36 36 36 38 43 48 49 46 43 44 43 42 43 45 46 48 47 45 44 43 42 39 35 31 32 33 33 32 30 27 25 23 23 24 25 25 24 24 24 25 26 26 27 28 27 26 26 24 24 24 23 23 22 22 20 17 16 16 15 13 12 10 9 11 16 20 21 21 22 23 24 24 25 26 26 25 25 24 22 21 21 20 19 18 17 17 18
37 38 36 36 38 42 46 47 44 43 44 45 45 44 45 47 48 47 46 45 43 43 40 36 34 34 34 32 30 29 27 25 22 22 23 24 24 24 24 25 27 28 28 29 28 27 26 26 25 24 24 23 22 22 22 20 18 16 14 13 13 12 10 9 11 15 19 21 22 23 24 25 26 26 25 25 24 25 24 23 22 21 20 19 19 19 19
36 36 36 35 34 35 37 42 46 46 45 45 45 45 45 45 47 49 48 47 45 45 46 40 33 32 35 35 31 29 29 29 26 24 23 23 24 24 25 26 28 29 30 30 29 28 27 27 26 25 24 23 22 23 24 22 19 16 14 12 12 12 11 11 10 13 17 19 21 22 23 24 26 26 26 25 25 26 26 25 24 22 21 21 21 20 20
39 36 34 33 32 31 30 33 39 44 47 47 45 46 46 46 47 49 49 48 46 46 46 40 30 26 30 33 33 32 29 28 28 27 24 23 24 26 28 28 29 30 32 32 32 31 30 29 28 27 26 25 22 22 23 22 20 18 16 14 13 12 12 13 13 13 15 17 19 21 23 24 26 27 27 27 27 27 28 28 27 24 22 22 22 21 22
38 36 35 33 30 29 29 30 32 36 44 50 49 46 46 45 45 47 47 48 48 47 46 43 37 32 29 28 31 33 32 29 27 27 25 23 23 25 28 29 30 31 33 33 33 33 32 31 30 30 30 29 27 25 25 25 24 23 21 20 18 16 15 16 15 14 15 16 16 17 20 22 24 26 28 28 28 28 29 29 29 27 26 25 24 24 24
38 35 34 32 31 30 30 31 32 33 37 44 47 46 46 45 45 45 45 46 46 46 46 45 44 42 39 35 32 33 33 31 29 28 27 26 24 24 26 29 31 32 33 34 34 34 34 33 32 32 31 30 30 29 29 29 28 27 26 25 23 22 21 20 19 17 17 17 17 17 17 17 19 22 25 27 28 28 29 29 29 29 29 28 27 27 27
40 38 36 34 34 33 31 29 31 33 34 37 40 42 45 46 46 46 47 48 49 49 48 48 48 47 46 43 41 38 36 35 32 30 29 29 28 27 27 28 30 32 34 34 34 34 34 34 34 33 32 32 31 30 29 28 27 28 28 28 27 26 25 24 23 22 21 20 20 20 19 17 16 17 20 23 25 27 29 30 29 28 29 30 30 29 29
37 38 39 38 37 36 35 32 32 33 35 36 38 39 42 43 42 42 45 47 49 51 52 51 50 49 48 47 46 45 42 40 38 36 33 32 31 31 29 28 29 32 34 35 35 35 35 35 35 35 34 34 33 33 32 31 30 30 30 31 30 29 28 27 26 25 25 24 23 23 22 21 20 19 18 20 22 23 24 26 27 28 29 30 31 31 30
35 35 37 39 40 39 37 35 34 35 37 39 39 40 41 41 40 41 43 44 45 47 50 52 50 47 46 44 43 44 45 43 41 40 39 38 35 33 31 30 30 31 32 34 35 36 36 37 37 37 36 35 35 35 34 34 33 32 32 31 31 30 30 29 29 28 27 27 26 25 24 24 24 23 22 22 22 22 22 22 24 26 28 31 32 31 30
33 34 35 37 40 41 39 36 35 37 40 42 42 42 43 42 40 41 41 41 42 44 47 49 50 49 47 43 38 37 41 44 42 41 41 41 40 37 35 33 33 33 34 34 34 35 36 38 39 39 38 38 37 37 36 36 36 35 34 33 33 33 32 32 31 31 30 29 29 28 27 26 26 26 26 25 24 23 23 22 23 24 26 29 31 30 29
29 30 32 34 37 38 39 38 37 38 41 43 44 45 45 44 42 43 41 37 38 41 44 45 46 47 48 46 40 34 34 36 38 39 38 38 40 40 40 38 37 37 37 36 36 36 37 38 39 39 40 39 39 39 39 39 38 37 37 36 35 35 35 34 34 33 33 33 32 31 30 29 29 28 28 28 26 25 24 25 26 27 27 28 28 27 27
26 27 28 31 33 35 36 37 38 39 40 42 44 45 46 45 44 47 47 41 37 37 39 42 44 44 45 46 45 42 38 35 36 37 36 35 35 38 40 40 40 40 40 39 39 39 39 40 40 40 40 41 41 41 41 41 40 40 40 39 38 38 37 37 37 36 36 35 35 34 33 32 32 31 31 30 30 29 28 28 29 30 30 29 27 24 23
24 26 27 28 30 32 33 34 36 37 38 40 42 43 45 45 46 48 49 48 44 40 38 39 41 42 43 44 45 46 43 39 36 37 37 36 36 37 39 40 41 41 41 41 40 40 40 40 41 42 42 42 42 42 43 43 43 42 42 41 40 40 39 39 39 38 37 37 37 37 36 35 35 34 34 34 33 33 32 32 32 31 31 30 28 25 23
21 24 26 27 29 30 31 33 34 34 36 38 39 39 40 42 44 46 48 49 50 49 46 43 42 43 44 44 43 42 41 37 34 33 35 37 37 38 40 41 42 42 42 42 42 41 41 41 41 42 43 44 44 44 44 44 44 44 44 43 42 42 41 41 41 41 40 40 40 39 38 37 37 36 36 36 36 35 34 34 33 33 32 31 29 28 26
19 21 24 25 27 28 30 31 32 33 34 36 37 38 38 38 38 40 42 43 45 48 49 48 47 46 45 45 44 42 40 37 34 32 34 36 37 39 41 43 44 44 44 44 44 44 44 43 43 43 43 44 44 45 45 46 46 46 45 44 43 43 42 42 43 43 42 42 42 42 41 41 39 39 38 38 37 36 35 34 34 33 33 32 31 30 29
19 21 22 24 25 27 29 30 31 31 32 34 35 37 38 38 37 37 37 37 38 40 43 45 46 47 47 46 45 43 41 40 38 36 36 38 39 41 42 44 45 46 47 47 47 46 46 46 45 45 45 45 45 45 45 45 46 46 46 45 44 43 43 43 43 43 44 43 43 43 43 43 42 41 40 39 38 37 36 35 35 34 34 34 33 32 31
21 22 23 24 26 27 29 30 31 32 32 33 35 36 37 37 38 37 37 37 36 37 38 39 41 43 46 46 46 46 45 44 43 42 41 41 41 43 44 45 46 47 47 48 48 48 48 47 47 46 46 46 46 45 45 45 45 46 46 46 45 44 43 43 43 43 44 44 44 44 44 44 44 43 42 41 40 39 38 37 37 36 36 35 35 34 34
24 24 25 26 27 28 29 31 31 32 32 33 34 35 36 37 37 37 36 36 36 36 37 39 39 40 42 44 46 48 48 48 47 46 44 42 42 43 44 46 46 46 47 47 48 48 48 48 48 47 47 47 46 46 46 45 45 45 45 46 45 45 44 44 43 43 43 43 44 44 44 44 44 44 44 43 43 42 40 39 39 38 38 37 37 36 36
24 25 26 27 28 29 31 31 32 32 33 33 33 33 34 36 38 38 38 37 36 35 36 38 38 38 38 40 42 45 49 51 51 49 47 44 43 43 43 45 47 48 48 48 48 48 48 48 48 48 47 47 47 47 47 46 46 46 46 46 46 46 46 45 44 44 43 43 44 44 44 44 44 44 44 44 44 44 43 42 41 40 39 39 38 38 37
25 26 28 29 31 31 32 32 32 32 33 34 34 34 34 34 35 38 40 41 40 39 38 37 38 38 38 39 40 42 45 48 49 49 49 48 48 47 45 45 46 47 48 48 49 49 49 49 49 49 48 48 48 48 49 49 49 49 48 48 48 47 47 47 46 46 45 45 44 44 44 45 45 44 45 45 45 45 45 44 43 42 41 41 41 40 39
27 28 29 31 32 33 34 34 34 34 33 34 35 36 36 36 36 37 38 40 41 42 42 41 40 40 40 40 40 40 41 43 44 45 46 47 48 48 48 47 47 47 48 48 49 50 50 50 50 50 50 50 50 50 50 50 50 50 50 50 50 50 50 50 49 49 49 48 47 47 46 46 46 46 46 46 45 46 46 46 46 45 44 43 43 42 41
28 28 29 30 31 33 35 35 36 35 35 34 35 36 37 38 37 38 38 39 40 41 41 41 41 41 41 41 41 41 41 41 42 43 43 44 44 44 45 46 47 48 49 49 49 49 50 51 51 51 51 51 51 51 51 52 52 52 52 52 52 52 52 52 52 52 52 51 51 50 49 49 48 48 48 48 48 47 47 47 48 47 47 45 45 45 44
28 28 28 29 30 32 34 35 36 36 36 35 35 36 37 38 38 38 38 39 40 40 40 40 40 40 40 40 41 42 42 43 43 43 42 42 42 42 42 43 44 46 48 49 49 50 51 52 52 53 53 52 52 52 52 52 53 53 53 54 54 54 54 54 54 54 54 54 53 53 53 52 52 52 51 51 51 51 50 49 49 49 49 49 48 47 47
27 27 27 28 29 31 33 35 36 36 36 36 36 36 37 38 40 40 40 39 40 41 41 41 41 41 40 40 40 40 41 42 43 44 45 44 44 44 44 43 44 45 46 47 48 49 50 51 52 52 53 54 54 54 53 53 54 54 54 55 55 55 55 55 55 55 55 55 55 55 55 55 55 55 54 54 54 54 54 53 52 52 52 52 51 50 50
26 26 27 27 28 29 31 33 35 35 36 36 37 37 38 38 39 40 41 41 41 41 42 42 42 42 42 42 41 41 41 40 40 42 44 45 46 47 47 47 47 46 46 46 47 48 48 49 49 50 51 52 53 53 54 54 54 54 55 55 55 55 55 55 56 56 56 56 56 56 57 57 57 57 57 56 56 56 56 56 56 56 55 55 55 54 53
24 25 26 26 27 28 29 30 32 33 34 35 36 37 38 39 40 40 40 40 40 40 41 41 41 42 42 43 43 44 43 42 41 40 41 41 42 43 45 47 48 48 48 47 47 47 48 48 49 49 49 50 50 51 52 52 53 54 54 55 55 55 55 55 56 56 56 56 56 56 57 57 58 58 58 58 58 58 58 58 59 59 58 58 58 57 57
23 24 25 26 26 27 28 29 30 31 32 34 35 36 37 39 40 41 42 41 40 40 41 42 42 42 41 42 44 44 44 44 43 42 41 40 40 40 41 43 45 46 47 47 47 48 49 50 50 50 50 50 50 50 50 51 51 52 53 53 54 54 55 55 55 56 56 56 56 57 57 57 58 58 59 59 60 60 60 60 60 60 60 60 60 60 60
22 23 24 25 25 26 27 28 29 30 31 33 34 35 36 37 39 40 42 42 41 41 42 42 42 42 42 42 43 44 44 45 45 44 43 42 41 41 42 41 41 42 42 43 45 46 48 50 50 51 51 51 51 51 51 51 52 52 52 53 53 54 54 55 55 56 56 56 57 57 57 57 58 58 58 59 59 60 60 61 61 61 62 62 62 62 62
23 24 24 24 24 24 25 25 27 28 30 31 32 33 35 36 37 38 40 42 43 44 45 45 43 42 42 42 42 43 43 44 45 46 46 45 45 44 44 43 42 41 41 41 41 42 43 45 46 48 49 50 51 52 52 52 53 53 53 54 54 54 55 55 55 56 56 57 57 57 58 58 59 59 59 59 59 60 60 60 61 62 62 62 63 63 63
23 24 24 24 24 23 24 24 25 27 28 29 30 31 32 34 35 36 38 40 42 44 47 48 47 45 44 42 42 42 43 44 45 46 46 47 47 47 46 45 45 44 44 43 42 41 41 41 42 43 45 46 47 48 49 50 51 51 52 52 53 53 54 54 55 56 56 57 57 58 58 59 60 60 61 61 61 61 61 61 62 62 62 63 63 63 64
23 23 24 24 24 24 24 25 26 27 28 29 30 31 32 32 33 34 36 37 38 41 43 46 47 48 48 46 44 43 43 44 44 45 45 45 46 47 48 48 48 48 47 46 45 44 43 43 43 44 44 44 45 45 46 47 48 49 50 50 51 52 52 53 54 54 55 56 57 58 59 59 60 61 62 63 63 64 64 64 64 64 64 65 65 64 65
26 26 26 26 26 26 26 26 27 28 29 30 31 32 32 33 33 33 35 35 36 38 40 42 44 46 47 47 47 46 45 44 43 42 42 43 45 46 47 47 48 49 49 48 48 47 47 47 47 48 47 47 46 46 47 48 48 48 49 49 50 50 51 51 52 53 54 55 56 57 58 59 60 62 63 64 65 66 66 67 67 67 67 67 67 67 68
29 29 29 29 29 29 29 30 30 30 31 32 32 33 33 33 33 33 34 35 36 37 37 38 41 43 43 44 46 47 46 44 42 40 41 44 46 47 46 46 45 46 47 47 48 49 49 50 50 50 49 49 49 49 49 49 49 49 49 49 49 49 50 51 52 53 54 56 57 58 59 60 61 62 63 65 66 67 69 69 70 70 70 70 70 70 70
33 33 33 33 33 33 33 33 34 34 34 34 35 35 35 35 35 35 35 35 36 37 37 37 38 39 40 42 44 44 45 44 42 40 42 46 48 47 47 47 46 46 45 45 45 47 48 49 49 49 49 49 49 49 49 49 50 50 50 50 51 52 53 54 55 56 57 58 59 59 60 61 62 63 64 66 67 68 70 72 73 73 73 73 72 72 72
35 35 35 35 35 35 35 35 36 37 38 38 38 38 38 39 38 38 37 37 36 37 37 38 38 38 39 41 42 42 43 42 41 41 44 46 45 43 44 45 45 46 45 45 45 46 47 47 48 47 47 48 48 49 50 50 51 51 52 53 54 55 57 58 59 60 60 61 61 62 62 63 64 65 66 67 69 70 72 73 74 75 76 76 76 76 75
36 36 36 36 36 36 36 36 37 38 39 40 41 41 41 42 42 41 40 39 38 38 38 39 38 38 39 40 40 40 41 41 43 45 46 44 40 39 39 40 41 42 42 43 43 44 44 45 45 46 47 48 48 49 50 51 51 52 53 54 55 57 58 60 61 61 62 63 64 65 66 66 67 68 69 69 70 72 73 75 76 77 78 78 78 79 79
37 37 38 38 38 38 38 38 38 39 40 40 41 41 42 43 44 44 43 42 41 40 40 39 39 39 38 38 39 40 40 41 44 45 42 37 35 35 34 35 36 38 39 40 41 41 41 42 43 44 45 46 47 48 49 50 51 52 53 54 55 56 57 58 60 61 62 64 65 67 68 69 69 69 69 70 71 72 73 75 76 78 78 79 80 80 81
38 39 39 39 40 40 41 41 41 41 42 41 41 42 43 44 45 46 45 44 43 43 42 40 39 39 38 38 40 40 39 39 40 40 37 35 35 35 35 36 37 39 39 40 40 40 40 41 42 42 43 44 45 46 47 48 49 50 51 53 54 55 56 57 58 60 61 63 64 65 66 67 67 67 67 68 68 69 70 72 74 75 76 77 78 80 81
38 38 39 40 40 41 41 42 42 43 43 43 42 43 43 43 44 46 46 46 45 45 44 42 40 39 39 39 39 39 39 40 41 40 39 38 38 37 37 38 39 39 39 39 39 40 40 40 41 41 42 42 43 44 45 46 47 48 49 50 51 53 54 55 56 58 59 60 61 62 62 62 63 63 64 64 65 65 66 68 70 71 72 73 74 76 78
37 38 38 39 40 40 40 40 40 41 42 42 43 43 43 42 42 43 45 45 46 46 45 43 41 40 39 38 36 36 38 38 38 38 38 39 38 38 38 38 38 38 38 38 39 39 40 40 40 41 41 42 42 43 44 44 45 46 47 48 49 51 52 53 54 55 56 58 59 60 60 60 61 61 61 62 62 62 63 64 65 66 67 68 69 70 72
37 38 38 38 37 37 37 37 38 39 40 41 41 42 42 41 41 41 42 43 44 45 45 44 42 40 38 36 36 37 39 39 38 38 39 39 38 37 38 38 38 38 38 38 38 39 40 40 40 41 41 41 42 42 43 44 44 45 46 47 48 49 50 51 52 53 54 56 57 58 58 58 58 58 58 58 58 57 58 58 59 60 61 62 63 63 64
37 37 35 34 33 33 34 35 36 36 36 36 38 38 38 38 38 39 39 40 41 42 42 42 41 39 35 34 36 38 40 40 40 40 39 38 37 37 38 38 39 39 39 40 40 40 40 40 41 41 41 41 41 42 42 43 43 44 45 46 47 48 48 49 50 51 52 54 56 56 55 54 54 53 53 53 52 52 53 54 55 56 57 58 58 58 57
35 33 30 29 29 31 33 33 32 31 29 29 30 30 30 31 32 34 35 36 36 37 38 39 38 36 34 35 38 40 42 42 42 41 40 39 39 38 38 38 39 39 40 41 41 41 41 40 40 40 40 40 40 40 40 41 41 42 43 44 45 46 46 47 48 50 51 52 53 52 51 49 49 49 49 49 48 49 49 50 52 54 55 56 56 57 56
32 28 26 26 27 29 30 29 25 23 23 22 22 23 25 25 25 26 29 31 30 30 32 33 33 33 33 35 38 41 43 43 42 40 39 38 37 35 35 35 36 37 39 40 40 40 39 38 37 37 37 37 37 38 39 40 41 42 43 43 44 44 44 45 47 48 50 50 49 47 45 45 45 46 46 46 45 46 47 48 50 52 53 54 55 56 56
27 23 24 25 25 26 27 24 19 16 17 16 14 15 17 18 18 18 22 25 26 28 29 28 28 29 32 33 35 37 37 36 34 33 34 34 35 35 35 35 35 36 37 38 38 37 36 35 35 35 35 35 36 37 38 39 40 41 42 42 42 42 42 44 46 48 48 46 44 43 42 43 44 45 44 44 43 44 44 45 46 47 47 48 50 52 53
23 21 23 23 22 23 25 21 14 12 12 11 8 10 13 14 13 13 16 19 23 29 32 29 27 29 33 35 35 35 33 31 30 30 31 32 33 34 35 35 35 35 36 35 35 35 34 34 34 34 34 35 36 37 38 39 40 40 41 41 41 41 42 44 46 47 45 42 40 40 40 42 43 44 44 43 42 41 41 42 43 44 44 44 45 47 48
20 20 22 21 19 21 21 17 10 8 7 5 3 7 12 14 14 16 18 18 20 26 30 29 27 30 32 32 32 33 33 32 31 31 32 32 32 32 32 33 33 33 33 34 34 34 34 34 34 35 35 35 36 37 38 40 40 40 40 41 41 42 43 44 46 45 42 39 38 39 40 41 42 43 43 41 39 39 39 41 42 44 45 44 44 44 45
18 19 20 19 17 17 16 11 5 3 1 2 4 5 7 10 13 17 21 22 21 23 27 29 29 30 29 27 26 28 30 31 30 29 29 30 30 30 30 30 30 30 31 32 33 34 34 35 36 37 38 39 40 40 41 41 41 42 42 42 42 42 43 45 44 42 39 37 37 38 39 40 41 41 40 38 37 37 38 39 41 43 45 45 45 45 45
16 17 18 17 15 14 11 7 3 3 2 3 5 5 6 7 10 15 19 22 22 23 24 26 27 27 26 25 25 27 29 31 32 31 30 29 30 30 30 31 31 31 32 33 34 36 37 38 40 41 43 44 44 44 43 43 43 43 43 43 42 43 43 44 42 39 36 36 36 37 38 39 40 39 38 37 36 36 37 39 41 43 45 46 46 45 45
14 14 16 15 12 10 9 6 3 2 2 1 5 6 6 6 7 10 13 17 20 21 21 22 22 23 23 24 24 25 27 30 32 33 32 30 30 31 32 32 34 35 35 36 38 39 39 40 41 42 43 43 43 43 42 42 42 42 42 42 42 42 42 41 39 36 35 35 36 36 37 37 37 36 36 35 36 36 38 39 41 43 44 45 45 44 44
14 13 14 13 11 9 7 6 3 2 1 0 2 4 5 6 6 6 7 9 12 14 15 16 17 18 19 20 21 22 23 25 27 29 29 28 28 29 29 30 31 33 34 34 35 36 37 38 39 40 40 41 40 39 38 38 39 40 41 41 42 41 40 37 35 34 34 34 35 36 36 35 34 33 34 34 35 36 37 38 39 40 40 41 42 43 43
Wind_Direction
193 193 195 199 200 200 200 202 203 200 198 198 201 206 208 209 210 213 214 215 215 219 222 221 219 221 223 222 223 229 233 234 234 233 232 230 228 225 221 217 216 219 224 227 228 228 230 231 235 237 236 236 236 235 236 230 223 227 229 231 239 243 238 233 229 226 224 219 218 220 221 226 229 226 221 219 219 220 223 225 228 230 229 226 229 237 239
185 189 193 198 201 203 204 205 204 200 198 198 201 205 208 208 210 213 214 215 216 217 219 223 222 221 223 224 225 227 230 232 233 233 233 231 228 226 222 218 216 218 223 228 229 230 232 232 234 237 236 236 238 238 236 229 223 226 227 226 231 241 247 245 235 227 223 221 221 221 220 222 226 226 225 224 223 223 223 225 226 228 229 227 225 231 237
183 186 190 195 200 205 206 207 207 203 200 201 203 206 208 208 209 213 214 215 216 217 218 222 226 224 222 222 224 225 228 234 238 236 232 231 229 226 223 219 217 217 220 226 229 230 232 234 237 239 239 236 235 234 232 227 223 225 226 224 228 235 243 250 240 226 219 219 219 220 219 220 225 229 230 229 228 226 225 226 227 228 230 230 226 227 233
189 188 190 193 200 206 208 209 210 208 205 205 207 210 211 209 209 212 215 216 217 218 220 225 232 231 226 224 225 227 231 236 240 240 236 231 228 225 222 219 217 216 218 222 227 229 230 232 234 235 237 236 232 228 226 228 230 231 232 230 228 229 233 239 236 224 218 218 218 219 221 224 228 232 233 232 230 228 226 226 227 229 230 231 231 230 231
193 192 193 194 198 205 205 205 208 209 211 213 213 214 216 215 213 214 216 217 218 218 220 224 228 224 221 222 224 227 229 231 234 237 236 233 227 223 222 220 217 217 217 219 224 228 230 231 231 232 232 232 230 223 220 226 234 237 239 238 234 230 230 233 234 229 224 221 220 220 224 228 232 233 233 232 231 229 227 226 226 229 232 231 231 233 235
199 192 189 189 194 201 203 203 203 206 212 216 217 218 220 219 218 218 218 219 220 221 222 224 227 228 227 224 224 226 229 231 233 234 235 234 230 225 224 222 220 218 218 220 223 227 230 231 231 231 232 232 231 229 228 233 239 242 244 244 242 239 236 237 241 239 234 231 229 226 226 229 233 234 233 230 228 226 226 226 226 228 233 233 230 230 235
216 209 200 198 202 206 206 206 206 207 211 215 218 222 226 226 225 224 223 222 223 225 226 227 230 236 240 240 236 235 235 236 238 240 239 237 233 227 224 224 223 221 220 222 224 227 230 231 232 233 233 233 233 235 239 241 241 240 241 244 246 246 245 245 249 251 249 248 247 242 237 235 234 232 231 229 226 224 224 225 226 228 233 235 233 230 231
227 228 227 227 228 226 224 222 220 218 218 220 223 227 231 233 234 234 233 233 232 233 235 235 236 239 243 245 244 243 241 240 241 244 243 239 235 232 227 225 225 224 223 223 225 227 229 231 233 235 235 235 236 238 240 239 237 237 241 245 249 250 249 249 251 253 255 257 257 253 250 248 245 239 234 231 228 228 229 228 228 229 233 235 236 235 234
229 232 235 238 239 238 237 234 229 226 227 228 229 230 231 234 236 238 238 239 239 240 240 240 240 241 243 245 245 243 242 241 241 243 243 241 239 237 232 228 227 227 226 226 227 228 230 232 233 235 236 238 240 241 241 240 240 243 247 250 251 251 251 252 253 254 255 256 258 259 257 255 252 249 245 239 234 235 237 237 235 235 237 238 238 238 238
229 230 232 236 239 239 238 235 230 228 228 230 229 228 229 232 235 238 238 238 239 241 242 241 241 242 243 244 245 243 239 238 240 241 241 241 241 241 238 234 231 230 230 229 229 230 231 232 234 235 237 238 240 242 243 244 245 246 247 250 252 252 252 253 254 255 256 257 257 258 259 259 258 254 251 247 243 243 246 245 242 240 240 240 240 239 239
225 225 227 231 235 236 236 234 229 225 225 227 227 226 227 231 235 237 237 235 234 235 238 240 242 242 242 244 247 244 238 236 237 238 238 239 241 244 244 241 237 235 234 233 232 232 232 234 235 237 237 238 240 241 243 245 246 246 246 248 250 251 252 253 254 254 255 256 256 256 256 258 259 259 257 255 253 254 254 253 250 247 245 244 243 240 240
226 225 225 227 231 233 233 231 228 225 224 227 229 228 228 231 234 236 236 236 235 235 236 239 241 241 240 241 241 239 237 237 235 234 237 241 243 244 245 244 242 240 239 238 236 235 234 235 236 238 239 239 240 241 242 244 245 246 246 247 248 250 251 252 253 254 254 254 255 255 256 255 257 259 260 259 259 258 258 258 257 255 254 252 248 243 242
230 229 228 227 229 231 231 229 227 226 226 228 231 233 232 232 233 235 237 238 238 238 238 239 240 240 240 240 239 240 244 246 241 238 241 244 244 243 242 242 241 241 241 240 239 238 236 236 237 238 239 240 240 241 242 243 245 245 246 248 249 250 251 252 253 254 254 254 254 254 255 255 256 257 258 258 258 256 255 256 256 257 257 257 255 252 251
234 234 233 232 231 231 231 230 229 227 227 229 232 234 235 234 233 234 236 238 238 238 238 239 239 240 241 243 243 243 245 246 246 244 242 241 239 239 238 238 238 238 239 240 240 240 239 238 238 238 239 239 240 241 242 244 245 246 246 247 249 250 251 253 254 255 255 256 257 257 256 256 255 255 255 256 256 255 254 254 256 257 258 259 260 260 260
239 237 236 235 234 233 233 233 232 229 227 228 230 232 234 235 235 235 236 238 239 240 242 243 242 241 241 241 241 241 241 243 243 242 238 236 235 235 235 235 236 236 237 237 238 239 239 239 239 239 239 239 240 240 242 243 245 246 246 246 247 248 250 252 254 255 256 258 260 261 260 259 258 257 256 256 255 255 255 255 256 257 258 259 260 261 261
244 243 241 238 236 236 236 236 236 233 230 229 230 231 232 233 235 234 234 236 238 239 241 242 242 241 240 239 239 239 239 238 236 232 230 230 232 233 235 235 236 237 237 236 237 238 238 238 238 239 240 240 240 240 241 242 244 246 247 247 247 247 247 249 251 254 255 257 259 261 262 262 262 261 261 260 259 259 258 258 258 259 260 260 260 260 259
249 247 246 243 240 239 238 238 238 237 236 234 234 235 235 236 237 238 237 237 237 238 240 241 240 240 239 238 237 237 237 236 233 231 229 228 229 232 234 236 237 238 238 238 237 238 238 239 239 239 240 241 242 242 242 242 243 245 246 248 248 248 247 247 249 251 253 255 257 259 261 262 263 263 263 262 262 262 262 261 260 260 261 261 260 259 258
254 252 250 247 244 242 241 240 239 239 238 238 237 238 239 238 239 240 241 241 240 238 238 239 240 239 239 238 236 236 237 236 236 235 234 232 231 231 233 236 237 238 239 239 239 239 240 241 241 242 242 242 243 244 244 244 244 245 246 247 249 249 249 248 248 249 250 252 254 255 257 259 261 262 263 263 262 262 261 261 260 260 260 260 260 259 258
257 255 254 252 249 246 244 243 242 242 241 241 240 240 240 239 238 238 238 239 241 240 238 238 238 238 238 238 237 236 236 236 237 237 237 236 234 233 233 235 237 238 239 240 241 241 242 243 243 244 244 244 245 245 246 246 246 246 246 247 248 249 250 250 250 250 249 250 251 252 254 255 257 260 261 262 262 262 261 260 259 259 259 259 259 258 258
257 257 257 256 254 252 249 246 244 243 244 244 244 244 244 243 241 239 237 237 238 239 238 238 238 239 239 238 237 237 237 237 238 239 239 238 237 236 236 237 238 239 240 241 241 242 243 244 245 245 246 246 247 247 247 247 247 247 247 248 248 249 250 251 252 252 251 251 251 251 252 252 253 255 257 259 261 262 262 261 259 258 258 258 257 256 256
256 257 259 259 258 255 253 250 248 246 244 244 244 245 246 245 244 243 241 240 240 240 239 239 238 238 239 239 239 239 239 239 240 241 242 241 240 239 240 240 241 241 242 243 243 244 244 245 246 247 247 247 248 248 249 249 249 249 249 250 250 251 252 253 253 253 253 253 253 253 253 252 253 253 254 255 257 259 261 261 260 260 259 259 258 257 255
260 258 258 259 260 258 255 252 251 250 248 246 244 244 244 245 245 245 244 244 243 242 241 241 240 240 241 242 241 241 240 240 241 242 243 244 243 242 242 243 243 244 244 245 245 246 246 247 247 248 249 249 249 250 251 251 251 251 252 252 252 253 253 254 254 255 255 255 255 255 255 254 254 254 254 254 254 255 257 259 260 260 259 259 259 259 258
268 265 261 259 259 259 258 255 253 252 251 250 247 244 243 243 243 244 245 246 246 245 244 244 244 244 245 245 245 244 242 241 241 242 244 245 246 245 245 244 245 245 246 246 246 247 247 248 249 249 250 250 251 251 252 252 253 253 253 253 254 254 255 255 255 256 256 256 256 256 256 255 255 256 256 255 255 254 254 256 258 259 259 258 258 259 259
271 268 264 260 257 256 257 256 254 252 251 250 247 244 243 243 243 243 244 245 246 247 247 247 246 246 246 246 247 247 246 244 244 244 245 246 247 247 247 245 245 245 245 246 246 246 246 248 249 250 251 251 252 252 252 253 253 253 254 254 254 255 255 256 256 256 256 256 256 256 256 256 256 256 256 257 257 257 256 255 256 257 258 258 258 258 259
274 270 266 262 258 254 254 255 255 254 252 250 247 244 242 243 243 243 243 244 245 247 248 249 248 248 248 247 247 247 248 247 246 246 247 247 247 247 247 247 245 244 244 244 245 245 246 246 247 249 250 251 252 252 252 253 253 254 254 254 255 255 255 255 255 255 255 255 255 255 256 256 256 256 256 256 257 258 258 257 256 256 257 257 258 258 258
276 274 270 266 262 258 255 255 255 256 254 251 248 246 243 243 243 243 242 242 243 244 246 247 248 248 248 248 248 247 247 247 247 247 247 247 247 248 248 248 247 245 244 244 244 245 246 247 247 247 248 249 250 251 252 252 253 253 254 254 254 255 255 255 255 255 255 255 255 254 255 255 255 255 255 255 255 256 257 258 258 257 257 257 257 257 257
280 277 274 271 267 264 261 258 256 256 256 254 251 249 246 245 244 245 244 243 242 242 243 244 246 247 248 249 249 249 248 247 247 247 247 247 248 249 249 249 248 246 245 244 244 245 246 246 247 247 248 248 249 250 251 251 252 252 253 253 254 254 255 255 255 256 256 256 256 255 255 255 255 255 255 255 255 255 255 256 257 258 258 257 257 257 257
283 280 277 275 273 270 266 262 258 255 255 254 252 250 248 247 247 247 246 245 245 245 244 243 243 245 246 247 248 248 247 247 247 247 247 247 248 249 249 249 249 248 247 246 245 245 245 246 246 247 248 248 249 250 250 251 252 253 253 254 254 254 255 255 255 256 256 257 257 257 257 256 256 256 256 256 256 256 256 256 256 257 258 258 258 258 257
283 281 279 277 275 273 270 266 261 257 255 253 252 250 248 247 246 246 246 245 245 245 245 243 242 242 242 244 246 247 246 246 246 246 246 247 248 249 249 250 250 250 249 248 247 246 246 246 247 248 249 249 250 251 251 252 252 253 254 255 255 256 256 257 257 257 257 258 258 258 259 259 258 258 258 257 257 257 257 257 257 257 257 257 258 259 259
285 284 282 280 277 274 271 268 265 261 258 256 255 253 251 249 247 246 245 244 243 244 246 246 245 243 241 240 242 244 245 245 244 244 244 246 247 248 249 250 250 251 250 250 249 248 248 248 248 249 249 250 250 251 251 252 253 254 254 255 256 257 257 258 259 259 259 259 259 259 260 260 260 259 259 258 258 257 257 257 257 257 257 257 257 258 259
288 286 285 283 280 275 271 268 265 263 261 259 257 256 255 253 251 248 247 245 244 245 246 247 247 246 243 241 242 243 244 245 244 244 244 245 247 248 249 250 251 251 250 250 250 250 250 250 250 249 249 249 249 250 250 251 252 253 254 255 256 257 257 258 259 260 260 260 261 261 261 261 261 261 260 260 259 258 258 257 256 256 256 256 256 256 257
293 291 289 286 283 279 274 271 268 266 263 261 259 257 256 256 254 253 251 249 247 246 246 247 247 247 246 246 246 245 245 245 244 244 244 246 247 248 249 250 250 251 252 252 252 252 252 253 253 253 252 251 251 251 251 251 251 252 253 254 255 256 258 259 260 261 261 262 262 263 263 263 263 263 262 262 261 261 260 259 258 256 256 255 255 255 255
295 293 291 288 284 280 276 272 269 267 265 263 261 259 258 257 256 255 254 253 251 248 246 245 246 246 246 247 248 247 246 245 245 245 246 247 248 248 249 250 250 251 252 253 254 255 255 256 256 256 256 255 255 255 255 254 254 254 255 255 256 257 258 260 261 262 263 264 264 265 265 266 266 266 265 265 264 264 263 262 261 259 258 257 256 255 254
294 292 289 287 284 280 277 273 270 267 266 265 263 261 260 258 257 256 254 253 252 250 247 246 245 245 245 246 247 247 245 245 245 246 247 249 249 249 249 251 252 253 253 253 254 255 256 257 257 257 258 258 258 259 259 259 258 258 258 259 259 260 261 263 264 265 265 266 266 267 267 268 268 268 268 267 267 266 265 264 263 262 261 260 259 258 257
293 291 288 286 283 281 278 275 272 269 267 266 265 263 262 260 257 256 255 253 252 251 249 248 247 245 243 242 243 244 244 244 245 246 246 246 247 248 250 251 253 254 254 254 254 254 255 256 257 258 259 259 259 260 261 261 261 262 262 263 263 264 265 267 268 269 269 269 269 269 269 270 270 271 271 270 270 269 268 266 265 264 263 262 262 261 260
294 292 290 287 284 281 278 275 272 270 268 266 264 263 262 260 258 256 254 253 252 250 248 247 246 245 242 240 240 240 241 242 245 247 246 244 243 246 248 250 251 252 253 254 254 254 254 255 256 256 257 258 259 260 261 261 262 263 264 265 266 267 268 269 271 271 271 271 270 271 271 272 272 273 272 272 271 270 270 269 267 266 265 264 263 262 262
296 294 292 289 286 284 281 277 274 271 268 266 264 261 260 259 258 256 254 252 251 250 247 246 245 243 242 240 238 238 240 242 244 244 242 240 239 242 246 248 249 251 252 252 252 253 254 254 255 255 256 257 258 259 260 261 262 263 264 265 266 267 268 269 270 270 270 270 271 271 272 272 273 273 273 272 271 271 270 270 269 268 267 266 265 264 263
297 296 294 292 290 287 284 281 277 274 270 267 265 262 259 257 255 254 252 250 249 248 246 245 243 241 240 239 236 237 242 245 241 236 235 235 235 237 242 246 248 250 251 251 252 253 254 254 255 256 257 258 259 260 261 262 263 264 265 266 266 267 268 269 269 270 271 271 272 272 272 273 273 272 271 271 270 270 270 269 269 268 267 267 266 265 264
298 296 294 292 291 289 287 284 282 279 275 271 267 263 259 256 254 252 251 249 247 246 245 244 242 241 240 238 236 238 244 245 240 236 237 240 241 241 245 249 250 251 251 252 253 254 254 255 256 257 258 259 260 261 262 263 264 265 266 266 267 269 270 271 271 272 272 273 273 273 273 273 272 272 271 270 269 269 269 269 269 268 267 267 266 265 265
297 296 295 293 292 290 289 286 284 281 278 274 270 265 261 256 252 250 249 247 246 244 243 242 242 242 241 240 240 242 245 245 243 243 246 248 248 249 250 251 250 250 250 252 253 254 255 256 257 258 259 260 261 262 263 264 265 266 267 268 270 271 272 272 273 273 273 273 274 273 273 273 273 273 272 271 270 269 269 269 269 268 268 267 266 265 264
298 297 296 295 294 291 288 286 283 280 277 274 270 266 263 258 254 249 247 246 244 242 241 241 241 242 242 241 242 243 243 242 243 246 248 250 252 252 251 249 249 250 250 251 253 254 255 256 258 259 260 261 262 263 265 266 267 268 269 270 271 272 272 273 273 274 274 275 275 275 275 275 275 274 273 272 271 270 270 269 269 269 268 267 266 265 264
301 300 299 297 295 292 289 287 285 282 279 275 270 265 261 258 254 249 245 243 241 240 239 239 239 240 240 240 240 242 243 244 246 248 249 250 251 252 251 250 250 251 252 253 254 255 256 258 259 260 261 262 264 265 266 267 268 269 270 271 271 272 273 274 275 275 276 276 277 277 277 276 275 274 272 271 271 270 269 268 268 268 268 268 267 266 265
304 304 301 299 296 295 295 294 292 288 283 277 270 264 258 254 251 247 244 242 239 237 236 237 238 238 237 236 238 240 243 245 247 247 246 247 250 252 253 253 252 253 254 255 256 257 258 259 260 261 262 263 264 265 266 267 268 269 270 271 272 273 274 275 276 277 278 278 278 279 278 276 274 272 271 270 269 268 267 267 267 267 267 268 268 268 267
307 305 303 302 302 303 304 301 297 293 287 280 271 263 254 247 243 242 240 239 237 234 232 232 234 234 233 234 236 238 241 243 244 244 244 247 251 253 252 251 251 253 253 254 255 257 258 259 259 260 262 263 264 265 267 268 270 271 272 273 274 275 276 277 278 279 279 280 280 280 278 275 273 272 271 270 268 267 266 266 266 266 266 266 267 267 267
309 306 306 309 310 310 310 307 301 296 292 284 272 258 245 235 231 232 233 233 231 229 226 227 230 232 233 234 235 236 237 239 241 243 244 246 247 248 247 248 249 250 250 251 253 254 255 256 257 259 260 262 264 266 268 270 272 273 275 276 277 277 277 278 280 282 283 282 281 279 276 274 273 273 273 272 271 271 270 268 268 267 267 267 267 267 267
311 309 313 315 314 315 317 313 302 294 294 290 273 250 232 220 216 222 226 225 220 215 214 219 227 229 228 227 228 231 234 236 239 242 244 245 245 246 248 248 249 249 250 251 252 253 254 255 256 258 260 263 265 267 270 272 274 276 277 279 279 278 279 281 284 285 285 283 280 277 276 276 276 276 276 276 277 276 274 272 271 270 270 269 269 269 268
313 313 318 319 317 320 324 318 300 286 293 294 269 226 205 196 199 211 219 220 215 208 207 211 220 225 226 227 229 232 237 241 244 246 247 247 247 248 249 249 249 250 250 250 251 252 253 254 256 258 261 264 266 269 272 273 275 277 279 280 280 281 282 285 287 288 286 282 279 278 278 279 279 279 280 280 279 277 274 272 271 271 270 269 269 269 268
316 317 321 321 321 326 329 325 306 287 291 297 242 194 189 189 194 198 201 206 211 210 209 211 220 227 231 234 236 239 244 247 247 246 245 244 244 246 247 248 248 249 248 249 249 250 251 253 255 257 260 265 269 272 274 275 276 278 280 282 283 283 285 287 289 288 284 281 279 279 280 280 280 281 282 281 279 277 274 272 272 272 272 272 271 270 269
320 321 324 325 327 333 336 335 326 314 302 131 125 139 169 190 198 198 196 198 203 207 210 215 221 227 230 232 233 234 237 237 237 237 238 240 241 244 246 247 248 249 249 250 251 251 252 254 256 259 264 268 272 274 276 276 276 278 280 282 283 284 287 289 289 286 283 280 280 281 281 282 283 283 283 281 279 277 275 275 275 276 276 276 276 274 272
322 325 329 330 333 339 342 341 342 7 46 145 154 154 169 188 195 197 200 205 211 216 221 226 231 235 240 244 245 244 243 242 244 249 252 252 252 253 253 253 254 255 256 257 258 259 259 260 262 265 268 271 273 274 276 276 277 278 280 281 282 284 288 289 287 284 282 281 282 282 284 285 285 283 281 280 279 278 278 279 279 279 279 278 277 275 273
324 326 333 336 336 339 340 330 312 333 360 197 197 201 209 214 210 204 206 212 218 224 230 235 239 243 248 252 254 254 253 252 253 256 258 258 257 258 258 259 260 260 261 261 262 262 263 264 266 268 270 271 272 274 275 276 277 279 279 279 281 285 288 287 284 282 282 283 284 285 286 286 283 281 279 278 278 278 279 279 280 280 279 277 276 275 273
327 326 332 336 337 336 337 330 311 298 342 33 184 197 219 246 259 257 246 235 230 231 236 241 245 248 250 250 251 253 253 252 252 253 253 253 254 256 257 258 259 259 260 260 261 262 263 265 267 268 269 271 272 273 273 274 276 277 277 279 283 286 286 283 281 282 284 285 286 287 287 286 283 280 279 279 279 280 282 284 284 283 280 278 277 276 275
Height
5807 5809 5811 5814 5817 5819 5820 5821 5823 5824 5826 5829 5831 5833 5835 5838 5840 5842 5844 5848 5851 5855 5858 5860 5863 5865 5867 5870 5871 5872 5874 5876 5879 5881 5883 5886 5888 5890 5892 5893 5894 5895 5896 5898 5900 5902 5904 5906 5907 5909 5910 5912 5912 5914 5915 5917 5917 5918 5919 5920 5921 5921 5922 5923 5925 5926 5928 5930 5931 5931 5932 5933 5935 5937 5939 5940 5940 5942 5944 5945 5946 5947 5948 5948 5949 5950 5952
5802 5805 5808 5811 5814 5815 5817 5819 5820 5822 5825 5828 5828 5830 5832 5834 5837 5839 5842 5844 5848 5851 5854 5857 5859 5862 5864 5867 5869 5870 5872 5874 5876 5878 5880 5882 5885 5887 5889 5890 5892 5893 5894 5895 5897 5900 5902 5904 5905 5906 5908 5909 5909 5911 5913 5915 5916 5917 5919 5919 5920 5920 5920 5921 5922 5923 5925 5927 5929 5930 5931 5932 5933 5934 5936 5937 5939 5940 5942 5943 5944 5945 5946 5946 5947 5947 5949
5799 5801 5804 5809 5811 5813 5816 5818 5820 5822 5825 5825 5825 5826 5828 5831 5834 5836 5839 5841 5844 5847 5851 5853 5855 5858 5861 5864 5867 5869 5870 5872 5874 5875 5877 5879 5881 5884 5886 5887 5889 5890 5891 5892 5894 5897 5900 5901 5903 5904 5905 5906 5907 5908 5911 5913 5914 5915 5917 5917 5918 5918 5919 5919 5920 5921 5923 5924 5926 5928 5929 5931 5932 5932 5933 5935 5937 5939 5940 5942 5942 5943 5943 5944 5944 5945 5945
5797 5799 5802 5806 5809 5811 5815 5818 5819 5822 5823 5822 5822 5824 5826 5829 5832 5834 5836 5839 5842 5844 5848 5851 5854 5856 5859 5862 5865 5867 5868 5870 5871 5873 5874 5876 5877 5880 5882 5884 5886 5887 5888 5889 5891 5893 5896 5898 5900 5901 5902 5903 5905 5906 5909 5910 5912 5914 5915 5915 5916 5916 5918 5919 5920 5920 5922 5923 5925 5926 5927 5929 5929 5930 5931 5932 5934 5936 5937 5939 5940 5941 5941 5941 5942 5942 5943
5795 5798 5801 5805 5807 5810 5813 5815 5816 5820 5821 5820 5822 5824 5825 5828 5831 5832 5835 5837 5839 5842 5845 5848 5852 5853 5856 5859 5862 5864 5865 5867 5869 5870 5871 5873 5874 5876 5877 5879 5882 5884 5885 5887 5888 5890 5892 5895 5897 5898 5900 5901 5902 5904 5906 5908 5909 5911 5912 5913 5914 5915 5916 5918 5919 5920 5921 5922 5923 5923 5924 5925 5926 5927 5928 5929 5931 5933 5934 5936 5937 5938 5939 5940 5940 5940 5940
5793 5796 5799 5802 5805 5807 5809 5810 5813 5817 5817 5818 5820 5822 5824 5827 5829 5831 5833 5835 5837 5839 5841 5845 5848 5850 5852 5856 5859 5860 5862 5864 5866 5867 5868 5870 5871 5873 5874 5876 5878 5880 5882 5884 5886 5887 5889 5891 5893 5895 5896 5898 5900 5901 5903 5905 5906 5908 5909 5911 5911 5912 5914 5915 5917 5918 5919 5920 5920 5920 5920 5922 5923 5924 5925 5926 5928 5930 5932 5933 5934 5935 5936 5937 5937 5937 5938
5792 5794 5796 5798 5800 5802 5804 5806 5809 5812 5814 5816 5819 5821 5822 5824 5826 5828 5830 5832 5834 5836 5838 5841 5844 5846 5849 5852 5856 5858 5860 5861 5863 5864 5865 5867 5868 5870 5872 5873 5875 5877 5879 5881 5883 5885 5887 5888 5890 5892 5893 5895 5897 5898 5900 5902 5903 5905 5906 5908 5909 5910 5911 5913 5914 5915 5916 5917 5917 5917 5918 5919 5921 5921 5922 5923 5925 5927 5928 5930 5931 5931 5932 5933 5934 5934 5935
5790 5791 5793 5794 5794 5797 5800 5802 5805 5808 5811 5814 5817 5818 5819 5820 5822 5825 5828 5829 5831 5832 5834 5837 5840 5842 5845 5848 5851 5855 5857 5858 5860 5861 5862 5863 5865 5866 5868 5870 5872 5874 5876 5878 5880 5882 5884 5885 5887 5888 5890 5892 5893 5895 5897 5898 5899 5901 5903 5904 5905 5907 5908 5909 5911 5912 5913 5914 5914 5915 5916 5918 5919 5920 5921 5922 5923 5924 5926 5927 5927 5928 5929 5930 5930 5931 5932
5788 5789 5790 5790 5792 5795 5797 5799 5802 5805 5807 5811 5813 5813 5814 5816 5820 5822 5824 5825 5827 5828 5829 5832 5835 5838 5841 5843 5846 5849 5852 5854 5855 5857 5859 5860 5861 5862 5864 5867 5869 5870 5872 5874 5876 5878 5880 5881 5883 5884 5886 5888 5889 5891 5893 5894 5895 5897 5899 5900 5902 5903 5905 5906 5907 5908 5909 5910 5911 5912 5913 5915 5916 5918 5919 5920 5921 5922 5924 5925 5925 5926 5926 5927 5927 5928 5929
5785 5786 5787 5788 5790 5792 5795 5798 5800 5801 5803 5805 5808 5809 5809 5812 5816 5817 5819 5820 5822 5824 5825 5826 5829 5832 5835 5837 5840 5843 5846 5849 5851 5853 5854 5855 5857 5858 5861 5863 5865 5866 5868 5870 5872 5874 5875 5877 5878 5879 5881 5883 5885 5886 5887 5889 5891 5893 5895 5896 5897 5899 5901 5902 5903 5905 5906 5907 5908 5909 5910 5912 5913 5915 5917 5918 5919 5921 5922 5922 5923 5923 5924 5925 5925 5925 5926
5782 5783 5784 5785 5787 5789 5793 5796 5798 5798 5798 5799 5802 5804 5805 5808 5812 5814 5815 5815 5815 5817 5819 5820 5823 5826 5829 5832 5835 5836 5839 5843 5846 5847 5848 5850 5852 5854 5857 5859 5861 5862 5863 5866 5869 5870 5871 5872 5873 5875 5877 5879 5881 5882 5883 5885 5886 5888 5890 5892 5893 5895 5896 5898 5900 5901 5902 5903 5904 5906 5907 5909 5910 5912 5913 5915 5916 5917 5918 5919 5919 5920 5921 5922 5923 5922 5922
5779 5780 5781 5783 5784 5786 5789 5792 5793 5794 5794 5794 5797 5799 5800 5804 5808 5810 5811 5812 5810 5810 5812 5815 5818 5820 5823 5826 5829 5831 5834 5838 5841 5843 5843 5845 5847 5850 5852 5854 5855 5856 5858 5861 5864 5865 5866 5868 5869 5870 5872 5874 5876 5878 5879 5880 5882 5883 5885 5887 5889 5890 5892 5894 5895 5897 5898 5899 5900 5901 5903 5905 5907 5908 5909 5911 5912 5914 5915 5916 5917 5917 5918 5920 5920 5918 5918
5776 5777 5779 5780 5781 5783 5785 5787 5788 5789 5791 5792 5793 5793 5795 5800 5804 5804 5806 5809 5808 5807 5807 5809 5812 5814 5817 5820 5823 5826 5830 5833 5835 5837 5839 5840 5841 5844 5846 5848 5849 5850 5853 5855 5858 5859 5861 5863 5864 5866 5868 5870 5871 5873 5874 5875 5877 5879 5880 5882 5884 5886 5887 5889 5890 5892 5893 5895 5896 5897 5899 5901 5903 5904 5905 5907 5908 5910 5912 5913 5914 5915 5915 5916 5915 5914 5915
5773 5774 5776 5777 5778 5779 5781 5782 5783 5785 5787 5788 5788 5788 5790 5794 5797 5799 5801 5802 5803 5803 5802 5803 5806 5810 5813 5816 5819 5822 5825 5827 5829 5831 5833 5834 5836 5837 5839 5841 5843 5845 5847 5849 5852 5853 5855 5857 5859 5861 5863 5864 5866 5868 5869 5870 5872 5873 5875 5877 5879 5881 5882 5883 5885 5886 5888 5889 5891 5892 5894 5896 5898 5900 5901 5903 5904 5905 5907 5908 5909 5910 5910 5910 5910 5911 5913
5770 5771 5772 5773 5774 5775 5777 5778 5779 5781 5782 5782 5783 5784 5785 5787 5790 5793 5795 5796 5797 5798 5799 5801 5803 5805 5808 5812 5814 5817 5820 5821 5823 5825 5827 5829 5830 5831 5833 5834 5837 5840 5842 5844 5846 5847 5849 5852 5854 5856 5857 5859 5861 5862 5864 5866 5867 5868 5870 5872 5874 5875 5877 5878 5879 5881 5882 5883 5884 5886 5888 5890 5892 5894 5896 5897 5899 5900 5902 5903 5904 5904 5905 5906 5907 5909 5910
5768 5768 5768 5769 5770 5771 5772 5773 5774 5775 5777 5778 5779 5779 5780 5781 5784 5786 5788 5790 5791 5792 5794 5796 5798 5799 5802 5806 5808 5811 5813 5815 5817 5819 5821 5822 5824 5825 5827 5828 5830 5833 5836 5838 5840 5841 5843 5845 5847 5849 5851 5853 5855 5857 5859 5861 5862 5864 5865 5866 5868 5870 5871 5873 5874 5875 5876 5877 5879 5880 5882 5883 5886 5888 5889 5891 5893 5894 5896 5897 5899 5899 5900 5902 5903 5905 5906
5764 5764 5765 5766 5766 5767 5767 5768 5769 5770 5772 5773 5774 5774 5775 5777 5779 5781 5783 5785 5786 5787 5789 5790 5791 5793 5796 5799 5801 5804 5806 5808 5811 5813 5815 5816 5818 5819 5820 5822 5824 5827 5829 5831 5833 5835 5836 5838 5841 5843 5845 5847 5848 5850 5853 5855 5857 5858 5860 5861 5862 5864 5866 5867 5869 5870 5871 5872 5874 5875 5876 5877 5879 5880 5882 5884 5886 5888 5889 5891 5893 5894 5895 5896 5898 5899 5901
5761 5761 5761 5761 5762 5763 5763 5763 5764 5766 5767 5768 5768 5769 5771 5773 5775 5776 5778 5779 5781 5782 5784 5784 5785 5787 5790 5792 5795 5797 5798 5801 5803 5806 5808 5810 5812 5813 5814 5816 5818 5820 5823 5825 5827 5828 5830 5832 5834 5836 5839 5840 5842 5844 5846 5849 5851 5853 5854 5856 5857 5858 5860 5861 5863 5865 5866 5867 5868 5869 5870 5871 5872 5874 5875 5877 5879 5881 5883 5884 5886 5887 5889 5890 5892 5893 5895
5757 5757 5757 5757 5757 5758 5758 5759 5760 5761 5762 5763 5764 5765 5766 5768 5770 5771 5772 5774 5775 5776 5778 5779 5780 5782 5784 5786 5788 5790 5792 5794 5796 5799 5802 5804 5806 5807 5809 5810 5812 5814 5816 5818 5820 5822 5824 5826 5828 5830 5832 5834 5836 5838 5840 5842 5844 5846 5848 5849 5851 5852 5853 5855 5857 5859 5861 5862 5863 5864 5865 5866 5867 5868 5869 5870 5872 5874 5876 5878 5880 5882 5883 5885 5886 5888 5889
5752 5752 5752 5752 5752 5753 5753 5754 5755 5756 5757 5758 5759 5760 5761 5763 5764 5766 5767 5768 5769 5770 5772 5774 5775 5777 5779 5780 5782 5784 5786 5787 5790 5792 5795 5797 5799 5801 5803 5805 5807 5808 5809 5811 5813 5815 5817 5819 5821 5823 5825 5827 5829 5831 5833 5835 5837 5839 5840 5842 5844 5845 5847 5848 5850 5852 5853 5855 5857 5858 5860 5861 5862 5863 5864 5865 5866 5867 5869 5872 5874 5876 5877 5879 5881 5882 5884
5748 5748 5748 5748 5747 5748 5748 5749 5750 5751 5752 5753 5754 5756 5756 5757 5759 5760 5761 5762 5763 5764 5766 5768 5770 5771 5773 5774 5776 5778 5780 5782 5784 5785 5787 5789 5792 5795 5797 5799 5800 5801 5803 5804 5806 5809 5811 5812 5814 5816 5817 5819 5821 5823 5825 5827 5829 5831 5833 5835 5836 5838 5840 5841 5843 5844 5846 5847 5849 5851 5853 5854 5856 5858 5859 5860 5861 5862 5863 5864 5866 5869 5871 5872 5874 5876 5878
5744 5744 5743 5743 5742 5742 5743 5743 5744 5745 5747 5748 5749 5750 5751 5751 5753 5754 5754 5755 5757 5758 5760 5762 5764 5765 5766 5768 5770 5772 5774 5775 5776 5777 5779 5781 5784 5787 5790 5792 5793 5794 5796 5798 5800 5802 5803 5805 5806 5808 5810 5812 5814 5816 5818 5820 5822 5824 5826 5827 5829 5830 5832 5833 5835 5836 5838 5840 5842 5844 5845 5847 5849 5850 5852 5854 5855 5857 5857 5858 5859 5861 5864 5865 5867 5868 5870
5738 5738 5738 5738 5737 5736 5736 5737 5738 5739 5741 5742 5743 5744 5745 5746 5747 5748 5749 5750 5751 5752 5754 5756 5758 5759 5760 5762 5764 5765 5767 5769 5770 5771 5773 5775 5777 5780 5782 5784 5785 5787 5788 5791 5793 5794 5795 5797 5798 5800 5802 5804 5806 5808 5810 5812 5814 5816 5818 5819 5821 5822 5824 5825 5827 5829 5831 5833 5834 5836 5838 5839 5841 5842 5844 5846 5848 5850 5851 5852 5853 5854 5856 5858 5860 5861 5862
5732 5732 5732 5732 5732 5731 5731 5731 5732 5733 5734 5736 5736 5738 5739 5740 5741 5743 5744 5745 5746 5747 5748 5749 5751 5752 5754 5755 5756 5758 5760 5762 5764 5765 5767 5769 5771 5773 5774 5776 5777 5779 5781 5783 5784 5785 5787 5789 5790 5792 5794 5796 5798 5800 5802 5804 5806 5808 5810 5811 5813 5814 5816 5818 5819 5821 5823 5825 5826 5828 5829 5831 5833 5834 5836 5837 5839 5841 5843 5846 5847 5848 5849 5851 5853 5854 5855
5726 5726 5726 5726 5726 5726 5726 5725 5725 5726 5728 5729 5730 5731 5733 5734 5735 5737 5739 5740 5741 5742 5743 5743 5744 5746 5747 5749 5750 5751 5753 5755 5757 5759 5761 5763 5764 5765 5766 5768 5770 5772 5774 5775 5776 5777 5779 5781 5783 5785 5786 5788 5790 5792 5794 5796 5798 5800 5802 5803 5805 5806 5808 5810 5811 5813 5815 5816 5818 5819 5821 5822 5824 5826 5828 5829 5831 5832 5834 5836 5839 5841 5842 5843 5845 5847 5848
5721 5720 5720 5720 5720 5720 5721 5720 5720 5720 5721 5722 5723 5725 5726 5728 5728 5730 5732 5733 5735 5736 5737 5738 5739 5740 5741 5743 5744 5745 5747 5748 5750 5752 5754 5756 5757 5758 5760 5761 5762 5764 5766 5767 5769 5771 5772 5774 5775 5777 5778 5780 5782 5784 5786 5788 5790 5791 5793 5794 5796 5797 5799 5801 5802 5804 5806 5807 5809 5811 5812 5814 5816 5817 5819 5821 5823 5824 5825 5826 5828 5831 5834 5835 5837 5839 5841
5717 5716 5716 5715 5715 5715 5715 5716 5716 5716 5716 5716 5717 5719 5720 5721 5722 5723 5725 5726 5728 5729 5730 5732 5733 5734 5735 5736 5737 5739 5741 5742 5744 5745 5747 5749 5750 5751 5752 5752 5753 5755 5758 5761 5763 5765 5766 5767 5768 5769 5771 5772 5774 5776 5777 5779 5781 5782 5784 5785 5787 5789 5790 5792 5793 5795 5796 5798 5799 5801 5803 5804 5806 5808 5810 5812 5814 5816 5818 5819 5820 5821 5824 5826 5828 5830 5832
5712 5711 5711 5710 5710 5710 5710 5710 5710 5710 5710 5710 5711 5712 5713 5714 5715 5716 5718 5719 5721 5723 5724 5725 5727 5728 5729 5730 5730 5732 5734 5736 5738 5739 5741 5742 5743 5743 5743 5744 5745 5748 5751 5754 5756 5757 5758 5759 5760 5762 5764 5766 5767 5769 5770 5771 5773 5774 5775 5777 5778 5780 5781 5782 5784 5785 5787 5788 5789 5791 5792 5794 5796 5798 5800 5802 5804 5806 5808 5810 5812 5813 5814 5815 5817 5820 5822
5708 5707 5707 5706 5705 5705 5704 5704 5704 5704 5704 5704 5704 5705 5706 5707 5708 5709 5711 5712 5714 5715 5716 5717 5719 5721 5723 5723 5724 5725 5727 5729 5731 5733 5734 5735 5736 5736 5736 5738 5739 5742 5744 5746 5748 5749 5750 5751 5754 5756 5757 5759 5760 5762 5763 5764 5765 5766 5767 5768 5770 5771 5772 5774 5775 5777 5778 5779 5781 5782 5783 5784 5786 5788 5790 5792 5794 5796 5797 5800 5802 5804 5806 5806 5807 5809 5811
5704 5703 5702 5701 5701 5700 5699 5699 5699 5699 5699 5699 5699 5699 5700 5701 5702 5703 5704 5705 5706 5707 5708 5709 5711 5713 5715 5716 5717 5718 5720 5722 5724 5726 5727 5728 5729 5730 5731 5732 5734 5735 5737 5738 5740 5742 5744 5745 5747 5749 5750 5751 5753 5754 5756 5757 5758 5759 5760 5761 5762 5763 5764 5766 5767 5768 5769 5770 5772 5773 5774 5775 5776 5778 5780 5782 5783 5785 5787 5789 5791 5793 5795 5797 5798 5799 5801
5699 5698 5697 5697 5696 5695 5695 5694 5694 5693 5693 5693 5694 5694 5694 5694 5695 5696 5696 5697 5698 5699 5700 5701 5703 5705 5708 5710 5711 5713 5714 5716 5717 5719 5720 5722 5723 5724 5725 5726 5727 5728 5729 5731 5733 5736 5738 5739 5740 5742 5743 5744 5745 5747 5748 5750 5751 5752 5753 5754 5755 5756 5757 5758 5758 5759 5760 5761 5762 5763 5765 5766 5766 5768 5769 5771 5773 5774 5776 5778 5780 5782 5784 5786 5788 5790 5791
5695 5694 5693 5692 5691 5691 5690 5690 5689 5689 5688 5688 5688 5688 5688 5688 5689 5689 5690 5691 5692 5693 5694 5695 5696 5698 5700 5703 5705 5707 5708 5709 5710 5712 5714 5716 5716 5717 5718 5719 5720 5721 5723 5725 5727 5729 5731 5732 5733 5734 5736 5737 5739 5740 5741 5742 5743 5744 5746 5747 5748 5748 5749 5750 5750 5751 5752 5752 5753 5754 5755 5755 5756 5757 5758 5760 5761 5763 5764 5766 5768 5771 5772 5774 5777 5779 5780
5690 5689 5688 5687 5686 5686 5685 5685 5684 5684 5683 5683 5683 5682 5682 5683 5683 5683 5684 5684 5685 5686 5688 5689 5690 5691 5693 5695 5697 5699 5701 5702 5704 5707 5708 5709 5710 5710 5711 5712 5713 5715 5717 5719 5721 5723 5724 5725 5726 5726 5728 5730 5732 5733 5734 5735 5736 5737 5738 5739 5740 5741 5742 5742 5743 5743 5743 5744 5744 5745 5745 5746 5746 5747 5748 5749 5749 5751 5752 5754 5756 5758 5760 5762 5766 5768 5768
5685 5684 5683 5681 5681 5680 5679 5679 5679 5678 5678 5677 5677 5676 5676 5677 5677 5678 5678 5679 5679 5680 5681 5682 5683 5684 5687 5690 5690 5691 5694 5696 5699 5701 5702 5702 5702 5703 5704 5705 5707 5709 5711 5713 5715 5716 5717 5717 5717 5719 5722 5724 5725 5725 5726 5727 5729 5730 5730 5731 5732 5733 5734 5734 5734 5735 5735 5736 5736 5736 5736 5736 5737 5737 5737 5738 5738 5739 5740 5741 5743 5745 5747 5750 5753 5755 5756
5678 5677 5676 5675 5674 5673 5673 5672 5672 5671 5671 5671 5670 5670 5670 5670 5671 5671 5672 5672 5673 5674 5675 5676 5677 5678 5681 5682 5683 5685 5687 5690 5693 5695 5695 5694 5694 5696 5697 5699 5701 5703 5705 5707 5708 5708 5709 5710 5711 5713 5715 5716 5717 5717 5718 5719 5720 5721 5722 5723 5724 5725 5725 5725 5725 5726 5726 5726 5727 5727 5727 5727 5727 5727 5727 5727 5727 5727 5727 5728 5730 5732 5734 5737 5739 5741 5742
5672 5670 5669 5668 5667 5666 5666 5665 5664 5664 5663 5663 5663 5663 5663 5663 5663 5664 5665 5665 5666 5668 5669 5670 5671 5672 5673 5675 5677 5679 5681 5684 5687 5688 5687 5686 5688 5689 5691 5692 5695 5696 5698 5699 5700 5700 5702 5703 5705 5707 5708 5708 5709 5710 5711 5711 5713 5714 5715 5715 5716 5716 5716 5716 5716 5717 5717 5717 5717 5717 5717 5717 5717 5717 5716 5715 5715 5715 5714 5715 5716 5718 5720 5723 5725 5727 5728
5665 5663 5661 5660 5659 5658 5658 5657 5656 5656 5655 5655 5655 5655 5655 5655 5655 5656 5657 5658 5659 5661 5662 5663 5665 5666 5667 5669 5671 5673 5676 5679 5681 5680 5678 5679 5681 5683 5684 5687 5689 5690 5691 5692 5692 5694 5695 5697 5698 5699 5700 5701 5702 5703 5703 5704 5705 5706 5707 5707 5707 5707 5707 5707 5707 5707 5707 5707 5707 5707 5707 5707 5706 5706 5705 5704 5704 5703 5702 5702 5703 5704 5706 5709 5711 5712 5713
5658 5656 5654 5652 5651 5650 5649 5648 5647 5647 5646 5646 5646 5646 5647 5647 5647 5647 5649 5650 5652 5654 5655 5657 5659 5661 5662 5664 5666 5667 5669 5671 5672 5671 5672 5674 5675 5677 5679 5681 5683 5683 5684 5685 5686 5687 5689 5690 5691 5692 5693 5694 5695 5695 5696 5697 5697 5698 5699 5699 5698 5698 5698 5698 5698 5697 5697 5697 5697 5696 5696 5695 5695 5694 5694 5693 5692 5691 5690 5690 5690 5690 5692 5694 5695 5696 5698
5650 5648 5646 5644 5642 5641 5639 5638 5637 5636 5636 5636 5637 5637 5637 5637 5638 5639 5641 5642 5644 5646 5648 5651 5653 5655 5657 5658 5659 5661 5662 5663 5663 5665 5666 5668 5669 5671 5674 5675 5676 5677 5678 5679 5680 5681 5682 5683 5684 5685 5686 5687 5687 5688 5689 5689 5690 5690 5690 5690 5689 5689 5689 5688 5688 5688 5687 5687 5686 5685 5685 5684 5683 5682 5682 5681 5681 5680 5679 5677 5677 5677 5678 5679 5680 5681 5682
5643 5641 5639 5636 5634 5633 5631 5629 5627 5626 5625 5625 5626 5626 5626 5627 5628 5629 5632 5634 5635 5637 5640 5643 5646 5648 5650 5652 5653 5654 5655 5655 5656 5658 5660 5662 5664 5666 5668 5668 5669 5671 5672 5673 5674 5675 5676 5677 5678 5678 5679 5680 5680 5681 5681 5682 5682 5682 5682 5681 5681 5681 5680 5679 5679 5678 5677 5677 5676 5675 5674 5673 5672 5671 5670 5670 5669 5668 5667 5666 5665 5664 5665 5665 5666 5666 5666
5636 5634 5631 5629 5626 5624 5622 5620 5619 5617 5615 5615 5614 5615 5615 5616 5618 5620 5623 5625 5627 5629 5632 5636 5639 5641 5643 5645 5647 5648 5648 5649 5650 5653 5655 5656 5658 5660 5661 5662 5663 5665 5666 5668 5669 5669 5670 5671 5671 5672 5673 5673 5673 5673 5674 5674 5674 5674 5674 5674 5673 5673 5672 5671 5670 5669 5668 5667 5666 5665 5664 5663 5661 5660 5659 5658 5658 5657 5656 5655 5654 5653 5652 5652 5653 5653 5653
5629 5626 5624 5621 5618 5616 5614 5612 5610 5608 5606 5604 5604 5604 5605 5606 5608 5610 5613 5615 5618 5621 5624 5628 5631 5633 5636 5638 5640 5641 5642 5644 5645 5647 5649 5651 5652 5653 5655 5656 5657 5659 5660 5661 5662 5663 5664 5664 5665 5665 5666 5666 5666 5667 5667 5667 5667 5667 5667 5667 5666 5665 5665 5664 5663 5661 5660 5659 5657 5656 5654 5653 5651 5650 5649 5648 5648 5647 5646 5645 5644 5643 5642 5641 5641 5641 5641
5622 5619 5616 5613 5611 5608 5606 5604 5601 5599 5597 5594 5593 5594 5595 5597 5598 5601 5604 5607 5610 5614 5618 5621 5624 5627 5630 5632 5633 5635 5636 5638 5640 5642 5644 5645 5646 5647 5648 5650 5651 5652 5654 5655 5655 5656 5657 5658 5658 5659 5659 5660 5660 5661 5661 5661 5661 5661 5660 5660 5659 5658 5657 5656 5655 5654 5652 5650 5648 5647 5645 5643 5642 5641 5640 5639 5638 5638 5637 5636 5635 5634 5633 5632 5631 5631 5631
5615 5612 5609 5607 5605 5602 5599 5596 5593 5590 5588 5585 5584 5584 5586 5588 5590 5593 5596 5600 5604 5608 5612 5615 5618 5621 5624 5626 5627 5629 5631 5632 5634 5636 5638 5639 5639 5641 5642 5643 5644 5646 5647 5648 5649 5650 5651 5651 5652 5652 5653 5653 5654 5654 5654 5654 5654 5654 5653 5653 5652 5651 5650 5649 5647 5646 5644 5642 5640 5638 5636 5635 5633 5632 5631 5631 5630 5629 5628 5627 5626 5625 5624 5623 5622 5622 5621
5609 5607 5604 5602 5599 5596 5593 5589 5587 5584 5581 5579 5577 5577 5579 5581 5585 5588 5591 5594 5599 5603 5607 5610 5613 5616 5619 5620 5622 5623 5624 5626 5628 5630 5632 5632 5633 5635 5636 5637 5639 5640 5641 5641 5643 5644 5645 5645 5646 5646 5646 5647 5647 5647 5647 5647 5647 5647 5646 5646 5645 5644 5643 5641 5640 5638 5636 5633 5631 5630 5628 5627 5626 5624 5623 5622 5622 5621 5620 5619 5617 5616 5615 5615 5614 5613 5612
5605 5602 5600 5597 5595 5591 5588 5585 5582 5580 5578 5575 5574 5574 5575 5578 5582 5585 5588 5591 5595 5599 5603 5606 5610 5612 5614 5615 5616 5617 5618 5620 5622 5624 5626 5627 5628 5629 5630 5631 5633 5634 5635 5636 5637 5638 5638 5639 5640 5640 5640 5641 5641 5641 5641 5641 5640 5640 5639 5638 5637 5636 5635 5634 5632 5630 5627 5625 5623 5622 5620 5619 5618 5617 5616 5615 5614 5612 5611 5610 5609 5608 5607 5606 5605 5604 5603
5600 5598 5596 5594 5591 5588 5584 5581 5579 5577 5576 5574 5573 5572 5574 5576 5579 5583 5586 5589 5592 5595 5598 5601 5604 5607 5609 5610 5611 5612 5613 5614 5616 5619 5620 5622 5623 5623 5624 5626 5627 5628 5629 5630 5631 5632 5632 5633 5634 5634 5634 5635 5635 5635 5635 5634 5634 5633 5632 5631 5630 5629 5627 5626 5624 5622 5620 5617 5616 5614 5613 5612 5611 5609 5608 5607 5606 5604 5603 5602 5601 5600 5599 5598 5597 5595 5594
5597 5595 5593 5590 5588 5585 5582 5579 5577 5576 5575 5574 5573 5573 5574 5576 5578 5581 5584 5587 5590 5592 5595 5598 5600 5602 5603 5604 5605 5606 5608 5609 5611 5613 5615 5617 5618 5618 5619 5621 5622 5623 5624 5625 5626 5626 5627 5627 5628 5628 5629 5629 5629 5629 5629 5628 5627 5626 5625 5624 5622 5621 5620 5618 5616 5614 5612 5610 5609 5608 5606 5605 5604 5602 5601 5600 5598 5597 5596 5595 5594 5592 5591 5590 5589 5587 5586
5594 5592 5590 5588 5586 5584 5581 5579 5577 5576 5576 5575 5575 5576 5577 5578 5579 5581 5582 5584 5587 5590 5592 5594 5595 5596 5598 5599 5600 5601 5603 5605 5607 5609 5610 5612 5612 5613 5614 5616 5617 5618 5619 5620 5620 5621 5622 5622 5623 5623 5623 5623 5623 5622 5622 5621 5621 5619 5618 5617 5615 5614 5613 5611 5609 5607 5605 5604 5602 5601 5600 5599 5597 5595 5594 5593 5592 5591 5589 5588 5587 5585 5583 5582 5580 5579 5578
5592 5590 5588 5586 5584 5583 5581 5579 5578 5577 5577 5576 5577 5577 5578 5578 5580 5581 5583 5584 5585 5587 5588 5590 5591 5592 5593 5595 5596 5598 5600 5601 5603 5605 5606 5607 5608 5608 5610 5611 5612 5613 5614 5615 5615 5615 5616 5617 5617 5617 5617 5616 5616 5615 5615 5614 5613 5612 5611 5610 5609 5607 5606 5604 5602 5600 5599 5598 5596 5595 5594 5592 5591 5589 5588 5586 5585 5584 5583 5581 5579 5577 5575 5573 5572 5571 5569
5590 5589 5587 5585 5584 5582 5581 5580 5579 5578 5578 5577 5578 5578 5578 5578 5579 5581 5582 5584 5585 5585 5586 5587 5588 5589 5591 5592 5594 5595 5597 5598 5600 5601 5602 5603 5603 5603 5605 5606 5607 5608 5608 5609 5609 5610 5610 5610 5610 5610 5610 5609 5609 5608 5608 5607 5606 5605 5604 5603 5602 5601 5599 5597 5595 5594 5593 5592 5591 5590 5588 5587 5585 5583 5582 5580 5579 5578 5576 5575 5572 5570 5568 5566 5564 5562 5561
5588 5587 5586 5584 5583 5582 5581 5580 5579 5579 5579 5578 5578 5579 5579 5579 5579 5580 5581 5582 5583 5583 5584 5585 5586 5587 5589 5590 5591 5592 5594 5595 5596 5597 5598 5598 5598 5599 5600 5601 5601 5602 5602 5603 5603 5603 5603 5604 5604 5603 5603 5602 5602 5601 5601 5600 5599 5598 5597 5596 5595 5594 5593 5591 5589 5588 5587 5586 5585 5584 5582 5581 5579 5578 5576 5575 5573 5572 5570 5568 5565 5563 5560 5558 5556 5554 5552